一网星座-0544星 (ONEWEB-0544)

导读

ONEWEB-0544是英国OneWeb公司全球卫星互联网星座的组网卫星,于北京时间2023年1月10日由SpaceX猎鹰9号火箭在卡纳维拉尔角发射升空,属于OneWeb星座第十六批次发射任务的卫星之一。 该卫星单星重量约148公斤,配备两块太阳能电池板供电,采用霍尔效应电推进系统,运行于高度约1200公里近地轨道,主要为全球提供高速卫星互联网接入服务,属于OneWeb一期组网的卫星,设计使用寿命约5年。

Basic Information
目录编号:
55144
目录名称:
ONEWEB-0544
国际标识:
2023-004E
轨道中心:
EARTH
卫星名称:
一网星座-0544星
卫星全名:
一网星座-0544星 (ONEWEB-0544)
卫星状态:
在轨 (已飞行1295 天)
发射日期:
2023-01-10 UTC
国别 :
英国 (GB)
星等 :
--
Orbit Information
数据来源 国际轨道数据 AOE轨道数据
星历时间 2026-07-27T04:10:22+0800
1天前
查看轨道信息
2026-07-23T06:00:00+0800
5天前
查看轨道信息
半长轴 7567.885km 7567.89km
偏心率 0.0002118 0.0001788
轨道倾角 87.920° 87.920°
近地点辐角 100.143° 93.930°
升交点赤经 327.584° 328.365°
平近点角 259.994° 9.210°
近地点 1188.145km 1188.399km
远地点 1191.351km 1191.107km
周期 109.200分钟 109.200分钟
每日圈数 13.186849 13.186836
Detailed Information
平衡模式:
三轴稳定
覆盖范围:
全球
运营商:
一网卫星公司
运营商所在国:
英国
制造商(研发单位):
一网卫星公司
制造商所在国:
英国
使用方式:
暂无
Satellite Introduction
OneWeb卫星网络由648颗重约125公斤的微型卫星组成,运行在1200公里的轨道上。 每颗卫星都能够提供至少每秒8千兆位的吞吐量,以使用其高吞吐量的Ku频段有效载荷为家庭和移动平台提供互联网接入。该卫星仍在工作。
2D Orbit Map
3D Orbit Map
Orbit Altitude Analysis Chart
Orbit Inclination Analysis Chart
Orbit Comprehensive Analysis Chart
View Comprehensive Chart